Location: Hylvaty SDH
(49.9612°N, 16.4057°E)
Time: 23:45:14
(UTC+02:00)

Vanguard 1 Rocket - Visible Passes

Search period start: 11 August 2020 00:00
Search period end: 21 August 2020 00:00
Orbit: 655 x 4222 km, 34.3° (Epoch: 11 August)

Date Brightness Start Highest point End Pass type
(mag) Time Alt. Az. Time Alt. Az. Time Alt. Az.
15 Aug 10.2 04:39:25 10° SSW 04:45:09 15° SSE 04:49:32 10° SE visible
16 Aug 10.6 03:29:27 10° S 03:33:41 12° SSE 03:37:15 10° SE visible
17 Aug 10.0 04:39:44 10° SSW 04:48:03 20° SSE 04:53:44 10° ESE visible
18 Aug 10.4 03:30:26 13° S 03:36:31 17° SSE 03:42:35 10° ESE visible
19 Aug 10.8 02:23:01 13° SSE 02:24:41 13° SSE 02:30:01 10° SE visible
19 Aug 9.9 04:40:41 10° SW 04:50:54 24° S 04:57:25 10° ESE visible
20 Aug 10.2 03:32:50 17° SSW 03:39:19 22° SSE 03:46:41 10° ESE visible
